Location: Newark
(50.4348°N, 30.5552°E)
Time: 11:37:36
(UTC+00:00)

Courier 1B Rocket - Pass Details

Date: 27 January 2020
Orbit: 920 x 1202 km, 28.2° (Epoch: 22 February)

Event Time Altitude Azimuth Distance (km) Brightness Sun altitude
Rises 10:47:46 0° 229° (SW) 3,899 8.9 20.5°
Reaches altitude 10° 10:54:14 10° 188° (S) 2,842 9.8 20.4°
Maximum altitude 10:54:43 10° 184° (S) 2,829 9.6 20.3°
Drops below altitude 10° 10:55:12 10° 179° (S) 2,827 9.4 20.3°
Sets 11:01:22 0° 137° (SE) 3,684 8.5 20.1°
